SCP
0 0 0 0 0 0 0 0 0 0 0 0 0 0 0 0 0 0 0 0 0 0 0 0 0 0 0 0 0 0 0 0 0 0 0 0 0 0 0 0 0 0 0
0 0 0 0 0 0 0 0 0 0 0 0 0 0 0 0 0 0 0 0 0 0 0 0 0 0 0 0 0 0 0 0 0 0 0 0 0 0 0 0 0 0 0
0 0 0 0 0 0 0 0 0 0 0 0 0 0 0 0 0 0 0 0 0 0 0 0 0 0 0 0 0 0 0 0 0 0 0 0 0 0 0 0 0 0 0
0 0 0 0 0 0 0 0 0 0 0 0 0 0 0 0 0 0 0 0 0 0 0 0 0 0 0 0 0 0 0 0 0 0 0 0 0 0 0 0 0 0 0
0 0 0 0 0 0 0 0 0 0 0 0 0 0 0 0 0 0 0 0 0 0 0 0 0 0 0 0 0 0 0 0 0 0 0 0 0 0 0 0 0 0 0
0 0 0 0 0 0 0 0 0 0 0 0 0 0 0 0 0 0 0 0 0 0 0 0 0 0 0 0 0 0 0 0 0 0 0 0 0 0 0 0 0 0 0
0 0 0 0 0 0 0 0 0 0 0 0 0 0 0 0 0 0 0 0 0 0 0 0 0 0 0 0 0 0 0 0 0 0 0 0 0 0 0 0 0 0 0
0 0 0 0 0 0 0 0 0 0 0 0 0 0 0 0 0 0 0 0 0 0 0 0 0 0 0 0 0 0 0 0 0 0 0 0 0 0 0 0 0 0 0
0 0 0 0 0 0 0 0 0 0 0 0 0 0 0 0 0 0 0 0 0 0 0 0 0 0 0 0 0 0 0 0 0 0 0 0 0 0 0 0 0 0 0
0 0 0 0 0 0 0 0 0 0 0 0 0 0 0 0 0 0 0 0 0 0 0 0 0 0 0 0 0 0 0 0 0 0 0 0 0 0 0 0 0 0 0
0 0 0 0 0 0 0 0 0 0 0 0 0 0 0 0 0 0 0 0 0 0 0 0 0 0 0 0 0 0 0 0 0 0 0 0 0 0 0 0 0 0 0
0 0 0 0 0 0 0 0 0 0 0 0 0 0 0 0 0 0 0 0 0 0 0 0 0 0 0 0 0 0 0 0 0 0 0 0 0 0 0 0 0 0 0
0 0 0 0 0 0 0 0 0 0 0 0 0 0 0 0 0 0 0 0 0 0 0 0 0 0 0 0 0 0 0 0 0 0 0 0 0 0 0 0 0 0 0
0 0 0 0 0 0 0 0 0 0 0 0 0 0 0 0 0 0 0 0 0 0 0 0 0 0 0 0 0 0 0 0 0 0 0 0 0 0 0 0 0 0 0
0 0 0 0 0 0 0 0 0 0 0 0 0 0 0 0 0 0 0 0 0 0 0 0 0 0 0 0 0 0 0 0 0 0 0 0 0 0 0 0 0 0 0
0 0 0 0 0 0 0 0 0 0 0 0 0 0 0 0 0 0 0 0 0 0 0 0 0 0 0 0 0 0 0 0 0 0 0 0 0 0 0 0 0 0 0
0 0 0 0 0 0 0 0 0 0 0 0 0 0 0 0 0 0 0 0 0 0 0 0 0 0 0 0 0 0 0 0 0 0 0 0 0 0 0 0 0 0 0
0 0 0 0 0 0 0 0 0 0 0 0 0 0 0 0 0 0 0 0 0 0 0 0 0 0 0 0 0 0 0 0 0 0 0 0 0 0 0 0 0 0 0
0 0 0 0 0 0 0 0 0 0 0 0 0 0 0 0 0 0 0 0 0 0 0 0 0 0 0 0 0 0 0 0 0 0 0 0 0 0 0 0 0 0 0
0 0 0 0 0 0 0 0 0 0 0 0 0 0 0 0 0 0 0 0 0 0 0 0 0 0 0 0 0 0 0 0 0 0 0 0 0 0 0 0 0 0 0
0 -0 0 0 0 0 0 0 0 0 0 0 0 0 0 0 0 0 0 0 0 0 0 0 0 0 0 0 0 0 0 0 0 0 0 0 0 0 0 0 0 0 0
0 0 0 0 0 0 0 0 0 0 0 0 0 0 0 0 0 0 0 0 0 0 0 0 0 0 0 0 0 0 0 0 0 0 0 0 0 0 0 0 0 0 0
0 0 0 0 0 0 -0 0 0 0 0 0 0 0 0 0 0 0 0 0 0 0 0 0 0 0 0 0 0 0 0 0 0 0 0 0 0 0 0 0 0 0 0
-0 0 0 0 0 0 -0 -0 -0 0 0 0 0 0 0 0 0 0 0 0 0 0 0 0 0 0 0 0 0 0 0 0 0 0 0 0 0 0 0 0 0 0 0
0 0 0 0 0 0 0 -0 -0 0 0 0 0 0 0 0 0 0 0 0 0 0 0 0 0 0 0 0 0 0 0 0 0 0 0 0 0 0 0 0 0 0 0
0 -0 -0 0 0 0 0 0 0 0 0 0 0 0 0 0 0 0 0 0 0 0 0 0 0 0 0 0 0 0 0 0 0 0 0 0 0 0 0 0 0 0 0
Wind_Speed_500mb
58 57 55 52 49 45 41 36 32 28 23 19 16 14 12 12 13 13 14 14 15 17 19 20 22 24 22 11 17 23 26 28 25 24 23 25 26 25 24 25 32 36 33
64 63 62 59 56 52 47 42 37 32 27 23 19 16 14 15 15 15 15 13 14 17 20 21 19 12 18 27 28 25 29 29 27 24 23 23 22 23 22 21 21 24 30
70 68 68 66 63 59 53 49 44 38 33 28 23 20 18 18 17 17 17 16 14 17 21 21 21 20 22 32 29 19 25 31 19 19 17 16 16 17 18 17 18 19 21
77 74 73 71 68 64 60 55 49 44 38 33 27 23 21 19 19 19 18 16 15 16 19 25 28 36 30 36 19 16 21 19 13 13 13 12 13 15 17 16 15 16 18
84 81 79 76 74 70 67 62 56 51 44 40 34 29 26 24 22 21 20 21 20 21 22 20 22 28 28 21 17 16 20 17 18 18 19 18 20 20 20 22 22 21 23
90 86 84 83 80 77 74 68 63 58 52 45 38 34 30 28 26 25 25 25 25 25 25 26 27 28 29 27 24 24 24 24 24 23 21 21 21 22 22 23 24 26 28
96 93 90 90 88 86 80 73 70 64 58 52 44 38 34 32 30 28 28 30 30 30 29 29 29 30 30 31 28 30 30 26 25 23 20 20 21 22 23 24 25 27 30
103 98 97 96 94 92 88 84 81 75 69 61 52 36 24 30 36 36 36 35 35 33 31 29 29 30 31 32 33 34 32 28 26 24 23 21 21 22 24 24 26 27 29
108 103 101 99 98 98 97 93 90 85 79 72 68 37 18 18 29 41 42 41 40 39 36 34 31 30 30 31 33 32 30 27 23 21 21 22 23 24 25 26 28 29 30
110 107 106 105 103 102 100 97 92 89 85 81 72 71 55 27 20 18 45 49 49 48 42 38 32 30 31 33 34 33 31 28 24 23 24 27 28 29 28 28 28 29 30
93 110 108 109 109 106 104 101 98 95 92 86 80 79 74 61 47 28 20 42 58 58 53 50 41 37 36 37 38 37 36 27 23 25 27 28 28 27 26 26 26 27 28
74 83 106 114 112 111 109 104 100 98 95 94 88 83 79 72 67 55 41 32 40 52 57 56 49 44 41 40 41 35 37 31 28 27 26 25 23 24 24 25 25 25 27
74 72 84 109 119 116 112 109 107 104 102 100 97 91 85 81 73 61 56 51 43 48 50 56 55 49 45 44 40 35 34 30 28 25 24 24 25 26 26 25 26 27 27
62 66 73 83 105 118 117 114 113 109 106 106 104 98 94 87 79 73 66 62 52 46 53 51 56 54 51 48 43 38 35 29 24 23 24 26 28 30 29 28 28 27 28
57 62 65 69 79 103 119 119 119 115 114 112 109 104 101 93 86 82 73 67 63 50 58 58 55 55 55 53 49 43 35 28 25 26 29 32 33 32 28 22 23 28 29
48 55 60 66 72 80 97 117 123 121 119 117 112 110 106 101 96 90 84 78 74 68 52 57 60 57 59 57 54 46 39 31 28 32 35 37 36 35 33 32 33 31 31
48 48 54 62 68 75 84 98 117 122 123 120 120 117 112 108 104 100 94 88 84 78 71 64 58 56 58 60 57 50 43 36 32 37 37 38 37 36 35 31 28 27 27
56 57 51 58 65 73 79 90 99 117 126 126 126 121 119 115 112 108 103 99 93 86 78 77 66 66 66 63 61 55 49 41 37 38 37 36 34 33 30 29 25 24 22
56 59 61 58 62 71 79 88 94 101 116 124 127 128 124 122 118 118 113 108 101 95 89 81 78 70 71 70 64 58 52 45 40 39 36 37 33 31 29 28 28 26 26
62 58 55 63 62 67 75 80 90 101 108 114 121 131 129 127 125 124 120 115 108 103 97 90 85 83 75 70 65 60 56 47 41 41 39 39 36 34 31 29 27 24 24
63 62 62 51 58 68 74 74 83 94 105 112 113 122 131 130 131 126 126 122 116 109 104 99 94 92 86 80 74 64 58 51 45 47 44 41 39 41 38 32 27 25 25
74 70 67 64 59 57 67 67 76 90 89 106 114 118 123 128 130 127 127 120 120 113 111 108 101 99 94 83 73 67 60 54 47 51 48 41 47 45 41 32 27 24 23
82 83 79 75 72 63 59 63 69 83 84 94 107 114 119 124 124 126 125 120 121 113 104 105 108 100 92 83 75 71 63 56 49 47 48 44 46 43 40 32 26 26 23
94 94 92 90 85 84 65 59 66 70 82 89 95 103 115 124 125 121 123 125 127 119 111 109 105 91 79 75 73 66 59 53 51 48 46 49 44 45 41 42 31 29 27
108 104 102 99 94 91 82 72 60 72 82 90 90 95 107 119 121 115 113 124 127 123 114 110 97 89 84 81 74 68 59 54 46 49 47 48 45 43 49 49 34 30 44
117 118 117 108 105 101 87 82 70 70 81 88 92 94 98 109 110 108 99 115 124 127 120 110 98 90 84 84 76 68 62 52 45 43 43 43 36 37 32 39 33 41 45
Wind_Direction_500mb
230 229 228 226 224 224 224 226 226 227 228 230 234 242 252 261 266 271 273 268 260 250 250 259 263 268 272 237 207 247 268 274 276 273 271 266 269 273 270 264 252 251 254
231 230 229 227 226 225 226 227 227 229 232 235 241 252 265 275 281 285 283 275 262 250 244 242 250 228 184 224 245 263 272 276 278 281 283 282 283 287 288 283 279 269 263
233 231 230 228 227 226 227 226 227 229 230 233 239 246 255 264 272 277 278 275 260 239 232 222 210 168 203 246 251 251 270 276 296 296 306 310 307 305 297 298 295 286 276
233 233 232 230 229 227 227 227 227 227 229 233 237 244 252 262 270 273 272 264 245 236 234 216 199 169 200 251 268 240 247 288 292 286 287 288 290 286 290 291 288 289 286
234 233 233 232 230 229 228 228 228 230 230 230 234 240 248 255 260 262 260 254 245 232 225 228 227 237 247 253 250 240 254 266 266 267 266 267 269 277 281 287 292 293 292
236 234 233 232 232 230 228 228 228 228 227 229 232 238 243 247 248 245 244 240 233 229 225 222 222 224 234 242 244 248 263 268 269 267 267 265 266 270 276 280 282 284 282
236 235 234 233 231 231 231 230 230 228 226 226 226 228 235 238 238 238 237 232 227 225 227 230 234 237 237 240 242 251 264 259 259 260 261 267 272 277 281 284 286 288 290
237 235 235 233 232 231 228 228 229 227 224 224 221 221 227 237 237 236 233 228 227 223 224 227 234 240 245 245 247 246 248 250 248 255 262 267 272 274 276 279 279 280 284
241 239 238 236 234 233 231 230 228 226 226 224 221 210 201 218 220 230 226 224 220 220 223 230 236 241 244 246 246 248 243 243 245 251 258 264 267 270 274 277 280 282 285
244 241 239 239 236 235 233 233 232 230 227 226 221 221 224 217 188 205 225 225 223 224 230 232 240 244 246 242 239 241 237 237 244 256 267 273 274 274 276 276 277 279 281
253 244 241 240 238 237 236 235 233 230 231 230 227 226 225 228 228 217 211 226 229 228 234 234 237 245 241 237 235 232 234 234 257 264 264 264 266 264 267 271 275 277 280
264 256 247 242 241 239 238 238 236 235 234 232 230 232 234 229 229 225 224 223 231 233 229 238 238 242 238 233 236 233 234 239 264 267 268 270 273 278 284 288 292 293 292
274 268 256 245 242 240 240 239 237 236 234 234 234 233 234 234 238 239 234 234 224 230 226 229 235 238 235 233 229 228 227 249 255 262 274 282 286 287 287 289 289 288 289
282 276 268 261 250 243 241 240 239 237 235 235 234 233 234 235 236 238 237 232 228 230 227 230 233 234 229 228 230 228 239 252 265 274 281 288 288 286 288 288 287 291 296
286 283 275 268 262 252 245 243 241 239 237 235 234 234 235 234 235 236 236 235 233 230 229 229 230 230 227 230 228 233 244 253 264 276 282 283 285 286 290 291 293 295 302
287 284 280 273 265 259 253 246 244 242 240 238 236 235 235 235 234 234 233 233 232 233 237 235 234 234 230 231 228 238 246 252 263 273 281 288 290 290 288 289 294 302 309
288 280 279 275 269 264 258 254 247 245 243 240 238 236 236 235 235 234 233 232 231 231 233 237 234 233 232 231 233 242 247 251 259 268 278 283 287 288 288 290 296 306 307
302 289 279 273 272 266 262 259 255 249 245 242 240 238 237 235 235 235 234 233 231 231 232 237 237 233 231 232 237 241 243 248 255 262 272 280 284 281 281 287 294 299 306
331 309 290 281 274 269 265 261 259 256 253 248 245 243 239 237 236 235 234 233 231 229 227 231 236 236 235 235 238 240 245 247 253 262 271 275 274 273 281 283 292 297 301
324 327 313 292 282 277 269 264 262 260 256 253 249 247 245 242 240 238 236 235 232 231 227 225 228 233 235 236 237 238 245 250 256 264 271 276 273 272 276 278 285 289 289
322 317 316 313 291 280 276 270 266 261 259 257 253 250 247 245 243 242 240 237 234 231 231 226 221 226 229 231 233 237 242 250 256 263 266 270 266 270 269 271 275 276 284
325 320 314 310 303 291 278 276 277 269 262 258 255 253 252 248 246 244 244 243 242 237 232 232 228 226 229 232 235 237 238 245 254 258 260 258 264 265 268 268 268 266 269
323 322 319 313 303 299 298 281 270 269 265 261 258 255 253 250 248 245 243 243 242 240 240 243 238 235 231 232 234 234 235 242 248 257 266 262 272 273 274 270 268 267 275
317 316 316 313 307 299 297 295 272 266 264 261 259 257 255 252 249 244 240 240 238 236 234 235 236 239 238 236 233 232 235 239 242 249 262 271 269 279 275 281 279 260 286
309 310 308 307 305 298 294 291 286 268 259 258 257 257 251 251 250 246 242 237 235 234 231 233 231 232 232 232 230 228 226 232 240 250 256 263 274 276 282 286 272 246 298
300 301 301 300 299 297 292 286 282 266 261 257 254 253 253 253 249 248 234 235 233 233 226 223 223 224 226 230 230 228 225 224 233 247 254 253 266 284 297 286 254 286 296
Wind_Speed_850mb
58 57 55 52 49 45 41 36 32 28 23 19 16 14 12 12 13 13 14 14 15 17 19 20 22 24 22 11 17 23 26 28 25 24 23 25 26 25 24 25 32 36 33
64 63 62 59 56 52 47 42 37 32 27 23 19 16 14 15 15 15 15 13 14 17 20 21 19 12 18 27 28 25 29 29 27 24 23 23 22 23 22 21 21 24 30
70 68 68 66 63 59 53 49 44 38 33 28 23 20 18 18 17 17 17 16 14 17 21 21 21 20 22 32 29 19 25 31 19 19 17 16 16 17 18 17 18 19 21
77 74 73 71 68 64 60 55 49 44 38 33 27 23 21 19 19 19 18 16 15 16 19 25 28 36 30 36 19 16 21 19 13 13 13 12 13 15 17 16 15 16 18
84 81 79 76 74 70 67 62 56 51 44 40 34 29 26 24 22 21 20 21 20 21 22 20 22 28 28 21 17 16 20 17 18 18 19 18 20 20 20 22 22 21 23
90 86 84 83 80 77 74 68 63 58 52 45 38 34 30 28 26 25 25 25 25 25 25 26 27 28 29 27 24 24 24 24 24 23 21 21 21 22 22 23 24 26 28
96 93 90 90 88 86 80 73 70 64 58 52 44 38 34 32 30 28 28 30 30 30 29 29 29 30 30 31 28 30 30 26 25 23 20 20 21 22 23 24 25 27 30
103 98 97 96 94 92 88 84 81 75 69 61 52 36 24 30 36 36 36 35 35 33 31 29 29 30 31 32 33 34 32 28 26 24 23 21 21 22 24 24 26 27 29
108 103 101 99 98 98 97 93 90 85 79 72 68 37 18 18 29 41 42 41 40 39 36 34 31 30 30 31 33 32 30 27 23 21 21 22 23 24 25 26 28 29 30
110 107 106 105 103 102 100 97 92 89 85 81 72 71 55 27 20 18 45 49 49 48 42 38 32 30 31 33 34 33 31 28 24 23 24 27 28 29 28 28 28 29 30
93 110 108 109 109 106 104 101 98 95 92 86 80 79 74 61 47 28 20 42 58 58 53 50 41 37 36 37 38 37 36 27 23 25 27 28 28 27 26 26 26 27 28
74 83 106 114 112 111 109 104 100 98 95 94 88 83 79 72 67 55 41 32 40 52 57 56 49 44 41 40 41 35 37 31 28 27 26 25 23 24 24 25 25 25 27
74 72 84 109 119 116 112 109 107 104 102 100 97 91 85 81 73 61 56 51 43 48 50 56 55 49 45 44 40 35 34 30 28 25 24 24 25 26 26 25 26 27 27
62 66 73 83 105 118 117 114 113 109 106 106 104 98 94 87 79 73 66 62 52 46 53 51 56 54 51 48 43 38 35 29 24 23 24 26 28 30 29 28 28 27 28
57 62 65 69 79 103 119 119 119 115 114 112 109 104 101 93 86 82 73 67 63 50 58 58 55 55 55 53 49 43 35 28 25 26 29 32 33 32 28 22 23 28 29
48 55 60 66 72 80 97 117 123 121 119 117 112 110 106 101 96 90 84 78 74 68 52 57 60 57 59 57 54 46 39 31 28 32 35 37 36 35 33 32 33 31 31
48 48 54 62 68 75 84 98 117 122 123 120 120 117 112 108 104 100 94 88 84 78 71 64 58 56 58 60 57 50 43 36 32 37 37 38 37 36 35 31 28 27 27
56 57 51 58 65 73 79 90 99 117 126 126 126 121 119 115 112 108 103 99 93 86 78 77 66 66 66 63 61 55 49 41 37 38 37 36 34 33 30 29 25 24 22
56 59 61 58 62 71 79 88 94 101 116 124 127 128 124 122 118 118 113 108 101 95 89 81 78 70 71 70 64 58 52 45 40 39 36 37 33 31 29 28 28 26 26
62 58 55 63 62 67 75 80 90 101 108 114 121 131 129 127 125 124 120 115 108 103 97 90 85 83 75 70 65 60 56 47 41 41 39 39 36 34 31 29 27 24 24
63 62 62 51 58 68 74 74 83 94 105 112 113 122 131 130 131 126 126 122 116 109 104 99 94 92 86 80 74 64 58 51 45 47 44 41 39 41 38 32 27 25 25
74 70 67 64 59 57 67 67 76 90 89 106 114 118 123 128 130 127 127 120 120 113 111 108 101 99 94 83 73 67 60 54 47 51 48 41 47 45 41 32 27 24 23
82 83 79 75 72 63 59 63 69 83 84 94 107 114 119 124 124 126 125 120 121 113 104 105 108 100 92 83 75 71 63 56 49 47 48 44 46 43 40 32 26 26 23
94 94 92 90 85 84 65 59 66 70 82 89 95 103 115 124 125 121 123 125 127 119 111 109 105 91 79 75 73 66 59 53 51 48 46 49 44 45 41 42 31 29 27
108 104 102 99 94 91 82 72 60 72 82 90 90 95 107 119 121 115 113 124 127 123 114 110 97 89 84 81 74 68 59 54 46 49 47 48 45 43 49 49 34 30 44
117 118 117 108 105 101 87 82 70 70 81 88 92 94 98 109 110 108 99 115 124 127 120 110 98 90 84 84 76 68 62 52 45 43 43 43 36 37 32 39 33 41 45
Wind_Direction_850mb
230 229 228 226 224 224 224 226 226 227 228 230 234 242 252 261 266 271 273 268 260 250 250 259 263 268 272 237 207 247 268 274 276 273 271 266 269 273 270 264 252 251 254
231 230 229 227 226 225 226 227 227 229 232 235 241 252 265 275 281 285 283 275 262 250 244 242 250 228 184 224 245 263 272 276 278 281 283 282 283 287 288 283 279 269 263
233 231 230 228 227 226 227 226 227 229 230 233 239 246 255 264 272 277 278 275 260 239 232 222 210 168 203 246 251 251 270 276 296 296 306 310 307 305 297 298 295 286 276
233 233 232 230 229 227 227 227 227 227 229 233 237 244 252 262 270 273 272 264 245 236 234 216 199 169 200 251 268 240 247 288 292 286 287 288 290 286 290 291 288 289 286
234 233 233 232 230 229 228 228 228 230 230 230 234 240 248 255 260 262 260 254 245 232 225 228 227 237 247 253 250 240 254 266 266 267 266 267 269 277 281 287 292 293 292
236 234 233 232 232 230 228 228 228 228 227 229 232 238 243 247 248 245 244 240 233 229 225 222 222 224 234 242 244 248 263 268 269 267 267 265 266 270 276 280 282 284 282
236 235 234 233 231 231 231 230 230 228 226 226 226 228 235 238 238 238 237 232 227 225 227 230 234 237 237 240 242 251 264 259 259 260 261 267 272 277 281 284 286 288 290
237 235 235 233 232 231 228 228 229 227 224 224 221 221 227 237 237 236 233 228 227 223 224 227 234 240 245 245 247 246 248 250 248 255 262 267 272 274 276 279 279 280 284
241 239 238 236 234 233 231 230 228 226 226 224 221 210 201 218 220 230 226 224 220 220 223 230 236 241 244 246 246 248 243 243 245 251 258 264 267 270 274 277 280 282 285
244 241 239 239 236 235 233 233 232 230 227 226 221 221 224 217 188 205 225 225 223 224 230 232 240 244 246 242 239 241 237 237 244 256 267 273 274 274 276 276 277 279 281
253 244 241 240 238 237 236 235 233 230 231 230 227 226 225 228 228 217 211 226 229 228 234 234 237 245 241 237 235 232 234 234 257 264 264 264 266 264 267 271 275 277 280
264 256 247 242 241 239 238 238 236 235 234 232 230 232 234 229 229 225 224 223 231 233 229 238 238 242 238 233 236 233 234 239 264 267 268 270 273 278 284 288 292 293 292
274 268 256 245 242 240 240 239 237 236 234 234 234 233 234 234 238 239 234 234 224 230 226 229 235 238 235 233 229 228 227 249 255 262 274 282 286 287 287 289 289 288 289
282 276 268 261 250 243 241 240 239 237 235 235 234 233 234 235 236 238 237 232 228 230 227 230 233 234 229 228 230 228 239 252 265 274 281 288 288 286 288 288 287 291 296
286 283 275 268 262 252 245 243 241 239 237 235 234 234 235 234 235 236 236 235 233 230 229 229 230 230 227 230 228 233 244 253 264 276 282 283 285 286 290 291 293 295 302
287 284 280 273 265 259 253 246 244 242 240 238 236 235 235 235 234 234 233 233 232 233 237 235 234 234 230 231 228 238 246 252 263 273 281 288 290 290 288 289 294 302 309
288 280 279 275 269 264 258 254 247 245 243 240 238 236 236 235 235 234 233 232 231 231 233 237 234 233 232 231 233 242 247 251 259 268 278 283 287 288 288 290 296 306 307
302 289 279 273 272 266 262 259 255 249 245 242 240 238 237 235 235 235 234 233 231 231 232 237 237 233 231 232 237 241 243 248 255 262 272 280 284 281 281 287 294 299 306
331 309 290 281 274 269 265 261 259 256 253 248 245 243 239 237 236 235 234 233 231 229 227 231 236 236 235 235 238 240 245 247 253 262 271 275 274 273 281 283 292 297 301
324 327 313 292 282 277 269 264 262 260 256 253 249 247 245 242 240 238 236 235 232 231 227 225 228 233 235 236 237 238 245 250 256 264 271 276 273 272 276 278 285 289 289
322 317 316 313 291 280 276 270 266 261 259 257 253 250 247 245 243 242 240 237 234 231 231 226 221 226 229 231 233 237 242 250 256 263 266 270 266 270 269 271 275 276 284
325 320 314 310 303 291 278 276 277 269 262 258 255 253 252 248 246 244 244 243 242 237 232 232 228 226 229 232 235 237 238 245 254 258 260 258 264 265 268 268 268 266 269
323 322 319 313 303 299 298 281 270 269 265 261 258 255 253 250 248 245 243 243 242 240 240 243 238 235 231 232 234 234 235 242 248 257 266 262 272 273 274 270 268 267 275
317 316 316 313 307 299 297 295 272 266 264 261 259 257 255 252 249 244 240 240 238 236 234 235 236 239 238 236 233 232 235 239 242 249 262 271 269 279 275 281 279 260 286
309 310 308 307 305 298 294 291 286 268 259 258 257 257 251 251 250 246 242 237 235 234 231 233 231 232 232 232 230 228 226 232 240 250 256 263 274 276 282 286 272 246 298
300 301 301 300 299 297 292 286 282 266 261 257 254 253 253 253 249 248 234 235 233 233 226 223 223 224 226 230 230 228 225 224 233 247 254 253 266 284 297 286 254 286 296